Location: Ahausen
(50.4985°N, 8.2722°E)
Time: 03:53:47
(UTC+00:00)

CENTAUR R/B - Pass Details

Date: 18 September 2020
Orbit: 755 x 1433 km, 63.4° (Epoch: 02 October)

Event Time Altitude Azimuth Distance (km) Brightness Sun altitude
Rises 21:13:49 0° 314° (NW) 4,184 6.9 -31.4°
Reaches altitude 10° 21:16:45 10° 306° (NW) 3,300 6.1 -31.7°
Maximum altitude 21:23:57 36° 245° (WSW) 2,061 4.1 -32.4°
Enters shadow 21:25:43 33° 222° (SW) 2,183 4.1 -32.6°
